This is the latest recevied weather packets stored in our database for station/object KD2RHT-13. If no packets are shown the sender has not sent any weather packets the latest 10 day(s).
| Time | Temp. | Humidity | Pressure | Rain* | Wind** | Luminosity | Snow |
|---|---|---|---|---|---|---|---|
| 1777857137 | 11.11° C | 75% | 1011.7 hPa | 0 mm | - | 0 W/m² | - |
| 1777856833 | 11.11° C | 74% | 1011.7 hPa | 0 mm | - | 0 W/m² | - |
| 1777856529 | 11.11° C | 74% | 1011.7 hPa | 0 mm | - | 0 W/m² | - |
| 1777856226 | 11.11° C | 73% | 1011.4 hPa | 0 mm | - | 0 W/m² | - |
| 1777855923 | 11.11° C | 74% | 1011.7 hPa | 1.27 mm | - | 0 W/m² | - |
| 1777855620 | 11.11° C | 72% | 1011.4 hPa | 1.27 mm | - | 0 W/m² | - |
| 1777855317 | 11.67° C | 70% | 1011.4 hPa | 0 mm | - | 0 W/m² | - |
| 1777855013 | 11.67° C | 67% | 1011.4 hPa | 0 mm | - | 0 W/m² | - |
| 1777854711 | 12.22° C | 64% | 1011.4 hPa | 0 mm | - | 0 W/m² | - |
| 1777854407 | 12.22° C | 63% | 1011.4 hPa | 0 mm | - | 0 W/m² | - |
| 1777854105 | 12.22° C | 62% | 1011.4 hPa | 0 mm | - | 0 W/m² | - |
| 1777853803 | 12.22° C | 63% | 1010.7 hPa | 0 mm | - | 0 W/m² | - |
| 1777853498 | 12.22° C | 65% | 1010.7 hPa | 0 mm | - | 0 W/m² | - |
| 1777853196 | 12.22° C | 60% | 1011.1 hPa | 0 mm | - | 0 W/m² | - |
| 1777852893 | 12.22° C | 60% | 1010.4 hPa | 0 mm | - | 0 W/m² | - |
| 1777852591 | 12.22° C | 59% | 1010.7 hPa | 0 mm | - | 2 W/m² | - |
| 1777852287 | 12.22° C | 60% | 1010.7 hPa | 0 mm | - | 3 W/m² | - |
| 1777851986 | 12.22° C | 59% | 1010.7 hPa | 0 mm | - | 2 W/m² | - |
| 1777851683 | 12.22° C | 59% | 1010.7 hPa | 0 mm | - | 3 W/m² | - |
| 1777851380 | 12.22° C | 58% | 1010.7 hPa | 0 mm | - | 8 W/m² | - |
| 1777851076 | 12.22° C | 59% | 1010.7 hPa | 0 mm | - | 14 W/m² | - |
| 1777850773 | 12.22° C | 59% | 1011.1 hPa | 0 mm | - | 14 W/m² | - |
| 1777850470 | 12.22° C | 58% | 1011.1 hPa | 0 mm | - | 20 W/m² | - |
| 1777850168 | 12.78° C | 58% | 1011.4 hPa | 0 mm | - | 16 W/m² | - |
| 1777849864 | 12.78° C | 55% | 1011.7 hPa | 0 mm | - | 16 W/m² | - |
* Rain latest hour (hover to see other rain measurements)
** Current wind speed in m/s (hover to see current wind gust speed)